Deer Park, WA

8:48 AM PST on February 27, 2017 (GMT -0800)
Deer Park

Weather History for KDEW - May, 2014

Change the Weather History Date:

Wednesday, May 7, 2014

  Actual Average Record
Temperature  
Mean Temperature 48 °F 50 °F  
Max Temperature 63 °F 64 °F 85 °F (2013)
Min Temperature 33 °F 35 °F 26 °F (2003)
Degree Days  
Heating Degree Days 17 15  
Month to date heating degree days 91 113  
Since 1 July heating degree days 6964 6924  
Cooling Degree Days 0 0  
Month to date cooling degree days 0 0  
Year to date cooling degree days 0 0  
Moisture  
Dew Point 31 °F    
Average Humidity 57    
Maximum Humidity 89    
Minimum Humidity 25    
Precipitation  
Precipitation 0.00 in 0.05 in 0.52 in (2011)
Month to date precipitation 0.07 0.34  
Year to date precipitation 10.04 8.24  
Sea Level Pressure  
Sea Level Pressure 29.89 in    
Wind  
Wind Speed 4 mph (East)    
Max Wind Speed 13 mph    
Max Gust Speed 16 mph    
Visibility 10 miles    
Events      
T = Trace of Precipitation, MM = Missing Value Source: NWS Daily Summary

Daily Weather History Graph

Daily Weather History Graph

Search for Another Location

Airport or City:

Trip Planner

Search our weather history database for the weather conditions in past years. The results will help you decide how hot, cold, wet, or windy it might be!

Date:

Astronomy

May. 07, 2014 Rise Set
Actual Time 5:22 AM PDT 8:11 PM PDT
Civil Twilight 4:46 AM PDT 8:47 PM PDT
Nautical Twilight 4:00 AM PDT 9:33 PM PDT
Astronomical Twilight 3:06 AM PDT 10:27 PM PDT
Moon 12:50 PM PDT (5/7) 1:55 AM PDT (5/7)
Length of Visible Light 16h 00m
Length of Day
14h 49m
First Quarter, 56% of the Moon is Illuminated
May 7
First Quarter
May 14
Full
May 21
Last Quarter
May 28
New
Jun 5
First Quarter

Hourly Weather History & Observations

Time (PDT) Temp. Windchill Dew Point Humidity Pressure Visibility Wind Dir Wind Speed Gust Speed Precip Events Conditions
12:53 AM 34.0 °F 31.0 °F 30.9 °F 89% 29.91 in 10.0 mi North 3.5 mph - N/A   Clear
2:53 AM 35.1 °F 32.2 °F 32.0 °F 89% 29.91 in 10.0 mi NNW 3.5 mph - N/A   Clear
3:53 AM 37.9 °F - 33.1 °F 83% 29.91 in 10.0 mi Calm Calm - N/A   Clear
4:53 AM 39.0 °F 33.4 °F 34.0 °F 82% 29.91 in 10.0 mi NNE 8.1 mph - N/A   Clear
5:53 AM 39.9 °F 33.9 °F 34.0 °F 79% 29.92 in 10.0 mi NNE 9.2 mph - N/A   Clear
6:53 AM 43.0 °F 39.5 °F 35.1 °F 74% 29.93 in 10.0 mi NNE 5.8 mph - N/A   Clear
7:53 AM 48.0 °F - 34.0 °F 58% 29.94 in 10.0 mi ENE 9.2 mph - N/A   Clear
8:53 AM 50.0 °F - 30.9 °F 48% 29.94 in 10.0 mi East 6.9 mph - N/A   Clear
9:53 AM 52.0 °F - 32.0 °F 47% 29.94 in 10.0 mi Variable 3.5 mph - N/A   Clear
11:53 AM 57.0 °F - 32.0 °F 39% 29.93 in 10.0 mi Calm Calm - N/A   Clear
12:53 PM 57.9 °F - 28.9 °F 33% 29.91 in 10.0 mi Variable 4.6 mph - N/A   Mostly Cloudy
1:53 PM 60.1 °F - 30.9 °F 33% 29.90 in 10.0 mi SSW 6.9 mph - N/A   Mostly Cloudy
2:53 PM 62.1 °F - 27.0 °F 26% 29.88 in 10.0 mi SW 9.2 mph - N/A   Mostly Cloudy
3:53 PM 62.1 °F - 28.0 °F 28% 29.87 in 10.0 mi Variable 5.8 mph - N/A   Mostly Cloudy
4:53 PM 61.0 °F - 28.0 °F 29% 29.86 in 10.0 mi SSE 8.1 mph - N/A   Scattered Clouds
5:53 PM 62.1 °F - 27.0 °F 26% 29.85 in 10.0 mi SSW 5.8 mph - N/A   Clear
6:53 PM 60.1 °F - 28.0 °F 30% 29.85 in 10.0 mi South 10.4 mph - N/A   Clear
7:53 PM 55.0 °F - 34.0 °F 45% 29.85 in 10.0 mi South 5.8 mph - N/A   Clear
8:53 PM 45.0 °F - 33.1 °F 63% 29.86 in 10.0 mi Calm Calm - N/A   Clear
9:53 PM 41.0 °F - 32.0 °F 70% 29.87 in 10.0 mi Calm Calm - N/A   Clear
10:53 PM 39.0 °F - 30.9 °F 73% 29.87 in 10.0 mi Calm Calm - N/A   Clear
11:53 PM 36.0 °F - 30.0 °F 79% 29.87 in 10.0 mi Calm Calm - N/A   Clear